GW6929 Weather Reports


Display with metric or nautical units.
time (UTC)temp
F
wind
direction
speed
MPH
gust
MPH
rain 1hr
in
rain 24hr
in
rain mn
in
humidity
%
barometer
mb
20260507142504 74 27 2.0 4.0 0.00 0.00 0.00 28 1028.7
20260507142003 73 26 1.0 4.0 0.00 0.00 0.00 29 1028.7
20260507141503 72 357 1.0 4.0 0.00 0.00 0.00 30 1028.3
20260507141003 71 359 2.0 4.0 0.00 0.00 0.00 31 1028.7
20260507140524 70 14 1.0 4.0 0.00 0.00 0.00 31 1028.3
20260507140003 68 36 1.0 4.0 0.00 0.00 0.00 32 1028.7
20260507135503 66 46 1.0 4.0 0.00 0.00 0.00 35 1028.7
20260507135003 64 45 1.0 4.0 0.00 0.00 0.00 39 1028.3
20260507134503 63 109 1.0 3.0 0.00 0.00 0.00 45 1028.0
20260507134003 63 99 1.0 3.0 0.00 0.00 0.00 42 1028.3
20260507133524 62 111 1.0 3.0 0.00 0.00 0.00 44 1028.0
20260507133003 61 136 1.0 3.0 0.00 0.00 0.00 45 1028.0
20260507132503 61 124 1.0 3.0 0.00 0.00 0.00 42 1028.3
20260507132003 60 93 1.0 3.0 0.00 0.00 0.00 46 1028.0
20260507131503 60 87 1.0 3.0 0.00 0.00 0.00 46 1028.3
20260507131003 60 80 1.0 3.0 0.00 0.00 0.00 46 1028.3
20260507130524 60 78 2.0 3.0 0.00 0.00 0.00 44 1028.0
20260507130003 60 55 2.0 5.0 0.00 0.00 0.00 45 1028.0
20260507125503 60 32 2.0 5.0 0.00 0.00 0.00 46 1028.0
20260507125003 60 53 2.0 5.0 0.00 0.00 0.00 47 1028.0
20260507124506 60 102 2.0 4.0 0.00 0.00 0.00 52 1027.6
20260507124006 61 90 1.0 3.0 0.00 0.00 0.00 52 1028.0
20260507123506 61 80 2.0 3.0 0.00 0.00 0.00 38 1028.0
20260507123006 61 108 2.0 3.0 0.00 0.00 0.00 38 1028.0
20260507122507 62 114 2.0 3.0 0.00 0.00 0.00 37 1028.0
20260507122006 62 94 2.0 3.0 0.00 0.00 0.00 37 1028.0
20260507121527 63 73 1.0 4.0 0.00 0.00 0.00 38 1027.6
20260507121006 63 49 1.0 5.0 0.00 0.00 0.00 38 1028.0
20260507120506 63 40 2.0 5.0 0.00 0.00 0.00 38 1028.0
20260507120006 62 41 1.0 4.0 0.00 0.00 0.00 40 1027.6
20260507115506 63 45 1.0 3.0 0.00 0.00 0.00 40 1028.0
20260507115006 63 69 1.0 4.0 0.00 0.00 0.00 38 1028.0
20260507114506 63 129 1.0 4.0 0.00 0.00 0.00 38 1028.0
20260507114006 63 161 1.0 4.0 0.00 0.00 0.00 41 1028.0
20260507113506 63 11 2.0 6.0 0.00 0.00 0.00 39 1028.0
20260507113006 63 31 2.0 6.0 0.00 0.00 0.00 37 1028.3
20260507112506 63 90 2.0 5.0 0.00 0.00 0.00 36 1028.3
20260507112027 64 97 2.0 4.0 0.00 0.00 0.00 36 1028.3
20260507111507 64 121 2.0 6.0 0.00 0.00 0.00 36 1028.3
20260507111006 64 162 2.0 6.0 0.00 0.00 0.00 37 1028.0
20260507110506 64 185 2.0 6.0 0.00 0.00 0.00 36 1028.0
20260507110006 64 176 1.0 4.0 0.00 0.00 0.00 36 1028.3
20260507105506 65 148 1.0 4.0 0.00 0.00 0.00 35 1028.3
20260507105006 64 86 1.0 5.0 0.00 0.00 0.00 37 1028.3
20260507104506 64 357 1.0 5.0 0.00 0.00 0.00 37 1028.3
20260507104006 63 17 2.0 4.0 0.00 0.00 0.00 38 1028.3
20260507103527 63 45 2.0 5.0 0.00 0.00 0.00 38 1028.7
20260507103006 63 38 2.0 5.0 0.00 0.00 0.00 38 1028.3
20260507102506 64 59 2.0 5.0 0.00 0.00 0.00 39 1028.3
20260507102007 64 179 1.0 3.0 0.00 0.00 0.00 39 1028.3
20260507101507 63 115 1.0 4.0 0.00 0.00 0.00 40 1028.3
20260507101006 63 130 1.0 4.0 0.00 0.00 0.00 40 1028.3
20260507100527 63 116 2.0 4.0 0.00 0.00 0.00 38 1028.7
20260507100005 64 69 1.0 4.0 0.00 0.00 0.00 38 1028.3
20260507095506 63 151 1.0 4.0 0.00 0.00 0.00 39 1028.3
20260507095006 63 128 2.0 4.0 0.00 0.00 0.00 40 1028.7
20260507094506 63 71 2.0 4.0 0.00 0.00 0.00 42 1028.3
20260507094006 62 57 2.0 4.0 0.00 0.00 0.00 48 1028.3
20260507093506 62 54 1.0 4.0 0.00 0.00 0.00 47 1028.3
20260507093026 62 99 1.0 3.0 0.00 0.00 0.00 46 1028.3
20260507092527 62 95 0.0 2.0 0.00 0.00 0.00 45 1028.3
20260507092006 62 125 0.0 2.0 0.00 0.00 0.00 45 1028.3
20260507091506 62 110 1.0 2.0 0.00 0.00 0.00 53 1028.3
20260507091006 62 97 1.0 2.0 0.00 0.00 0.00 43 1028.3
20260507090527 62 93 1.0 2.0 0.00 0.00 0.00 45 1028.7
20260507090006 63 104 1.0 2.0 0.00 0.00 0.00 46 1028.7
20260507085505 63 113 1.0 2.0 0.00 0.00 0.00 45 1028.7
20260507085006 64 106 1.0 2.0 0.00 0.00 0.00 48 1028.7
20260507084506 64 92 1.0 2.0 0.00 0.00 0.00 38 1028.7
20260507084006 64 85 1.0 2.0 0.00 0.00 0.00 35 1028.7
20260507083506 64 82 1.0 2.0 0.00 0.00 0.00 35 1028.7
20260507083005 64 87 1.0 2.0 0.00 0.00 0.00 36 1028.7
20260507082506 64 97 0.0 1.0 0.00 0.00 0.00 38 1028.7
20260507082005 64 101 0.0 1.0 0.00 0.00 0.00 39 1028.7
20260507081526 64 93 0.0 1.0 0.00 0.00 0.00 39 1029.0
20260507081026 64 83 0.0 2.0 0.00 0.00 0.00 34 1028.7
20260507080506 64 79 0.0 2.0 0.00 0.00 0.00 36 1029.0
20260507080005 65 67 0.0 2.0 0.00 0.00 0.00 34 1028.7
20260507075505 64 69 0.0 2.0 0.00 0.00 0.00 34 1028.7
20260507075005 64 85 0.0 2.0 0.00 0.00 0.00 35 1028.7
20260507074505 64 87 1.0 1.0 0.00 0.00 0.00 35 1028.7
20260507074026 64 86 1.0 2.0 0.00 0.00 0.00 36 1028.7
20260507073527 64 89 1.0 2.0 0.00 0.00 0.00 36 1028.7
20260507073005 64 84 1.0 2.0 0.00 0.00 0.00 36 1029.0
20260507072505 65 88 1.0 2.0 0.00 0.00 0.00 38 1029.0
20260507072006 65 91 0.0 2.0 0.00 0.00 0.00 40 1029.0
20260507071526 66 70 0.0 2.0 0.00 0.00 0.00 35 1028.7
20260507071005 65 70 1.0 2.0 0.00 0.00 0.00 35 1029.0
20260507070526 65 83 1.0 2.0 0.00 0.00 0.00 35 1029.0
20260507070026 65 75 1.0 2.0 0.00 0.00 0.00 35 1029.0
20260507065505 65 70 1.0 2.0 0.00 0.00 0.00 36 1029.0
20260507065005 65 87 1.0 1.0 0.00 0.00 0.00 36 1029.0
20260507064505 65 86 0.0 1.0 0.00 0.00 0.00 39 1029.0
20260507064005 65 83 0.0 1.0 0.00 0.00 0.00 39 1029.0
20260507063505 65 90 0.0 1.0 0.00 0.00 0.00 41 1029.0
20260507063005 66 85 0.0 1.0 0.00 0.00 0.00 38 1029.0
20260507062505 66 85 0.0 1.0 0.00 0.00 0.00 36 1028.7
20260507062005 66 120 0.0 2.0 0.00 0.00 0.00 36 1029.0
20260507061505 66 128 0.0 2.0 0.00 0.00 0.00 40 1028.7
20260507061026 67 101 0.0 2.0 0.00 0.00 0.00 44 1029.0
20260507060505 67 69 0.0 2.0 0.00 0.00 0.00 33 1029.0
20260507060026 67 67 0.0 2.0 0.00 0.00 0.00 33 1029.0
20260507055526 67 77 0.0 1.0 0.00 0.00 0.00 33 1028.7
20260507055005 67 90 0.0 1.0 0.00 0.00 0.00 33 1028.7
20260507054526 67 82 0.0 1.0 0.00 0.00 0.00 34 1029.0
20260507054005 67 62 0.0 2.0 0.00 0.00 0.00 36 1029.0
20260507053505 67 85 0.0 2.0 0.00 0.00 0.00 36 1029.0
20260507053005 67 102 0.0 2.0 0.00 0.00 0.00 38 1028.7
20260507052505 68 100 0.0 2.0 0.00 0.00 0.00 39 1028.7
20260507052005 68 120 1.0 2.0 0.00 0.00 0.00 40 1028.7
20260507051526 68 128 0.0 2.0 0.00 0.00 0.00 41 1028.7
20260507051005 68 116 0.0 2.0 0.00 0.00 0.00 38 1028.7
20260507050505 68 116 0.0 2.0 0.00 0.00 0.00 40 1028.7
20260507050006 69 129 0.0 2.0 0.00 0.00 0.00 40 1028.7
20260507045505 69 134 0.0 2.0 0.00 0.00 0.00 40 1028.7
20260507045005 70 118 0.0 1.0 0.00 0.00 0.00 38 1028.3
20260507044505 70 102 0.0 1.0 0.00 0.00 0.00 35 1028.3
20260507044004 71 98 0.0 2.0 0.00 0.00 0.00 35 1028.7
20260507043505 71 99 1.0 2.0 0.00 0.00 0.00 35 1028.3
20260507043005 72 95 1.0 2.0 0.00 0.00 0.00 32 1028.3
20260507042504 72 90 1.0 3.0 0.00 0.00 0.00 32 1028.3
20260507042005 72 97 2.0 3.0 0.00 0.00 0.00 31 1028.3
20260507041505 72 91 1.0 3.0 0.00 0.00 0.00 31 1028.3
20260507041025 72 85 1.0 3.0 0.00 0.00 0.00 30 1028.3
20260507040505 72 87 1.0 3.0 0.00 0.00 0.00 30 1028.3
20260507040005 73 86 1.0 2.0 0.00 0.00 0.00 30 1028.0
20260507035526 73 96 1.0 3.0 0.00 0.00 0.00 30 1028.0
20260507035005 74 102 1.0 3.0 0.00 0.00 0.00 30 1028.0
20260507034505 74 108 2.0 3.0 0.00 0.00 0.00 29 1028.0
20260507034004 74 111 1.0 3.0 0.00 0.00 0.00 29 1028.0
20260507033505 74 110 1.0 3.0 0.00 0.00 0.00 29 1028.0
20260507033004 74 105 1.0 3.0 0.00 0.00 0.00 29 1027.6
20260507032504 74 96 0.0 3.0 0.00 0.00 0.00 28 1027.3
20260507032025 74 103 0.0 2.0 0.00 0.00 0.00 28 1027.3
20260507031504 74 124 0.0 2.0 0.00 0.00 0.00 28 1027.6
20260507031005 74 130 0.0 1.0 0.00 0.00 0.00 28 1027.3
20260507030505 75 123 0.0 1.0 0.00 0.00 0.00 29 1027.3
20260507030004 75 127 0.0 2.0 0.00 0.00 0.00 29 1027.3
20260507025504 75 121 0.0 2.0 0.00 0.00 0.00 28 1027.3
20260507025005 76 122 0.0 2.0 0.00 0.00 0.00 28 1027.3
20260507024505 76 134 0.0 2.0 0.00 0.00 0.00 28 1026.9
20260507024025 77 136 0.0 2.0 0.00 0.00 0.00 28 1026.9
20260507023504 78 132 1.0 3.0 0.00 0.00 0.00 28 1026.9
20260507023025 78 112 1.0 3.0 0.00 0.00 0.00 27 1026.9
20260507022504 79 98 1.0 3.0 0.00 0.00 0.00 26 1026.9
20260507022004 79 105 1.0 3.0 0.00 0.00 0.00 27 1026.9
20260507021525 79 110 1.0 3.0 0.00 0.00 0.00 26 1026.9
20260507021004 80 117 1.0 3.0 0.00 0.00 0.00 26 1026.9
20260507020525 80 164 0.0 2.0 0.00 0.00 0.00 27 1026.9
20260507020004 81 136 1.0 4.0 0.00 0.00 0.00 26 1026.9
20260507015504 82 123 2.0 4.0 0.00 0.00 0.00 25 1026.9
20260507015025 82 119 1.0 4.0 0.00 0.00 0.00 23 1026.9
20260507014504 82 112 1.0 4.0 0.00 0.00 0.00 22 1026.9
20260507014004 83 92 1.0 4.0 0.00 0.00 0.00 21 1026.9
20260507013504 83 84 1.0 3.0 0.00 0.00 0.00 20 1026.9
20260507013004 84 107 1.0 3.0 0.00 0.00 0.00 20 1026.9
20260507012525 84 101 1.0 3.0 0.00 0.00 0.00 19 1026.6
20260507012004 84 106 1.0 3.0 0.00 0.00 0.00 19 1026.6
20260507011504 84 104 1.0 4.0 0.00 0.00 0.00 20 1026.9
20260507011004 84 91 1.0 5.0 0.00 0.00 0.00 20 1026.9
20260507010504 84 109 2.0 5.0 0.00 0.00 0.00 19 1026.6
20260507010025 85 120 2.0 4.0 0.00 0.00 0.00 19 1026.9
20260507005504 85 114 1.0 4.0 0.00 0.00 0.00 19 1026.9
20260507005004 85 124 2.0 5.0 0.00 0.00 0.00 19 1026.9
20260507004504 85 110 2.0 5.0 0.00 0.00 0.00 18 1026.9
20260507004004 86 108 2.0 5.0 0.00 0.00 0.00 19 1026.9
20260507003504 87 119 1.0 5.0 0.00 0.00 0.00 18 1026.9
20260507003004 88 128 1.0 5.0 0.00 0.00 0.00 17 1026.9
20260507002504 88 339 1.0 5.0 0.00 0.00 0.00 17 1026.9
20260507002004 88 12 1.0 5.0 0.00 0.00 0.00 17 1026.9
20260507001504 88 12 1.0 5.0 0.00 0.00 0.00 17 1027.3
20260507001004 88 3 1.0 4.0 0.00 0.00 0.00 17 1027.3
20260507000504 88 74 1.0 3.0 0.00 0.00 0.00 17 1027.3
20260507000004 88 197 1.0 5.0 0.00 0.00 0.00 17 1026.9
20260506235525 88 184 1.0 5.0 0.00 0.00 0.00 17 1026.9
20260506235004 88 29 1.0 4.0 0.00 0.00 0.00 17 1026.9
20260506234504 88 27 1.0 4.0 0.00 0.00 0.00 18 1026.9
20260506234004 87 125 1.0 5.0 0.00 0.00 0.00 18 1026.9
20260506233504 86 152 2.0 5.0 0.00 0.00 0.00 19 1027.3
20260506233004 86 127 2.0 5.0 0.00 0.00 0.00 18 1026.9
20260506232504 86 132 2.0 6.0 0.00 0.00 0.00 18 1027.3
20260506232025 86 157 2.0 6.0 0.00 0.00 0.00 18 1027.3
20260506231525 86 137 2.0 6.0 0.00 0.00 0.00 19 1027.3
20260506231004 86 149 1.0 5.0 0.00 0.00 0.00 18 1027.3
20260506230525 87 149 2.0 5.0 0.00 0.00 0.00 18 1027.6
20260506230024 86 139 2.0 5.0 0.00 0.00 0.00 18 1027.3
20260506225504 87 140 2.0 5.0 0.00 0.00 0.00 18 1027.3
20260506225004 88 129 1.0 4.0 0.00 0.00 0.00 18 1027.6
20260506224525 87 156 1.0 4.0 0.00 0.00 0.00 19 1027.6
20260506224004 86 165 2.0 5.0 0.00 0.00 0.00 19 1027.6
20260506223504 87 165 2.0 5.0 0.00 0.00 0.00 19 1027.6
20260506223003 89 165 1.0 5.0 0.00 0.00 0.00 18 1028.0
20260506222504 88 170 1.0 5.0 0.00 0.00 0.00 18 1027.6
20260506222004 87 135 1.0 6.0 0.00 0.00 0.00 18 1028.0
20260506221504 87 122 1.0 6.0 0.00 0.00 0.00 18 1028.0
20260506221003 86 116 1.0 6.0 0.00 0.00 0.00 19 1028.0
20260506220503 86 124 2.0 6.0 0.00 0.00 0.00 19 1028.0
20260506220024 86 123 2.0 6.0 0.00 0.00 0.00 19 1028.0
20260506215503 86 101 2.0 6.0 0.00 0.00 0.00 19 1028.3
20260506215004 86 120 2.0 8.0 0.00 0.00 0.00 19 1028.3
20260506214504 86 115 2.0 8.0 0.00 0.00 0.00 19 1028.3
20260506214004 85 126 1.0 6.0 0.00 0.00 0.00 19 1028.7
20260506213503 85 146 2.0 8.0 0.00 0.00 0.00 19 1028.7
20260506213004 85 151 2.0 8.0 0.00 0.00 0.00 19 1028.7
20260506212504 86 140 2.0 6.0 0.00 0.00 0.00 20 1028.7
20260506212003 86 90 2.0 6.0 0.00 0.00 0.00 18 1029.0
20260506211503 86 118 2.0 6.0 0.00 0.00 0.00 21 1029.0
20260506211004 86 142 1.0 5.0 0.00 0.00 0.00 18 1029.0
20260506210503 86 113 1.0 5.0 0.00 0.00 0.00 18 1029.4
20260506210003 86 133 1.0 4.0 0.00 0.00 0.00 19 1029.4
20260506205503 86 155 1.0 4.0 0.00 0.00 0.00 20 1029.4
20260506205003 85 112 1.0 4.0 0.00 0.00 0.00 20 1029.4
20260506204503 84 168 2.0 7.0 0.00 0.00 0.00 19 1029.4
20260506204024 84 185 1.0 7.0 0.00 0.00 0.00 19 1029.7
20260506203503 84 237 1.0 5.0 0.00 0.00 0.00 20 1029.4
20260506203003 84 204 2.0 5.0 0.00 0.00 0.00 19 1029.7
20260506202524 85 112 2.0 6.0 0.00 0.00 0.00 18 1029.7
20260506202003 84 75 1.0 6.0 0.00 0.00 0.00 18 1029.7
20260506201503 83 94 2.0 7.0 0.00 0.00 0.00 20 1029.7
20260506201003 82 116 2.0 7.0 0.00 0.00 0.00 19 1029.7
20260506200524 84 84 1.0 7.0 0.00 0.00 0.00 19 1029.7
20260506200003 82 355 1.0 5.0 0.00 0.00 0.00 20 1029.7
20260506195503 82 352 1.0 5.0 0.00 0.00 0.00 20 1029.7
20260506195003 83 53 2.0 4.0 0.00 0.00 0.00 20 1030.1
20260506194503 83 74 2.0 5.0 0.00 0.00 0.00 19 1030.1
20260506194003 82 1 2.0 5.0 0.00 0.00 0.00 20 1030.1
20260506193503 82 9 2.0 5.0 0.00 0.00 0.00 21 1030.1
20260506193013 82 42 2.0 6.0 0.00 0.00 0.00 20 1030.1
20260506192513 83 71 2.0 6.0 0.00 0.00 0.00 19 1030.1
20260506192013 82 110 3.0 6.0 0.00 0.00 0.00 20 1030.1
20260506191513 82 142 2.0 6.0 0.00 0.00 0.00 21 1030.1
20260506191013 83 148 1.0 8.0 0.00 0.00 0.00 20 1030.1
20260506190513 82 102 2.0 8.0 0.00 0.00 0.00 21 1030.5
20260506190013 82 111 2.0 8.0 0.00 0.00 0.00 19 1030.5
20260506185513 82 113 3.0 5.0 0.00 0.00 0.00 20 1030.5
20260506185034 82 106 2.0 5.0 0.00 0.00 0.00 21 1030.8
20260506184534 81 112 2.0 6.0 0.00 0.00 0.00 22 1030.5
20260506184013 82 94 2.0 6.0 0.00 0.00 0.00 21 1030.8
20260506183513 81 59 1.0 5.0 0.00 0.00 0.00 22 1030.5
20260506183013 82 65 1.0 5.0 0.00 0.00 0.00 22 1030.8
20260506182513 82 65 1.0 5.0 0.00 0.00 0.00 23 1030.8
20260506182034 82 80 2.0 5.0 0.00 0.00 0.00 23 1031.2
20260506181513 81 129 2.0 5.0 0.00 0.00 0.00 23 1030.8
20260506181013 81 135 1.0 5.0 0.00 0.00 0.00 24 1030.8
20260506180513 81 64 1.0 4.0 0.00 0.00 0.00 24 1031.2
20260506180013 80 68 1.0 5.0 0.00 0.00 0.00 25 1030.8
20260506175513 80 98 2.0 5.0 0.00 0.00 0.00 25 1031.2
20260506175013 80 90 1.0 4.0 0.00 0.00 0.00 25 1031.2
20260506174534 79 74 1.0 5.0 0.00 0.00 0.00 26 1031.2
20260506174013 79 78 1.0 5.0 0.00 0.00 0.00 26 1031.2
20260506173513 77 104 2.0 7.0 0.00 0.00 0.00 27 1030.8
20260506173013 77 97 2.0 7.0 0.00 0.00 0.00 27 1031.2
20260506172534 78 95 2.0 5.0 0.00 0.00 0.00 27 1031.2
20260506172013 77 139 2.0 5.0 0.00 0.00 0.00 28 1031.2
20260506171513 76 137 2.0 8.0 0.00 0.00 0.00 29 1031.2
20260506171013 77 133 2.0 8.0 0.00 0.00 0.00 28 1031.2
20260506170513 77 149 2.0 6.0 0.00 0.00 0.00 28 1031.2
20260506170034 77 142 1.0 4.0 0.00 0.00 0.00 28 1030.8
20260506165534 76 113 1.0 6.0 0.00 0.00 0.00 29 1030.8
20260506165013 75 103 2.0 6.0 0.00 0.00 0.00 30 1030.8
20260506164513 75 89 2.0 6.0 0.00 0.00 0.00 29 1030.8
20260506164013 74 112 2.0 6.0 0.00 0.00 0.00 30 1030.8
20260506163513 74 116 2.0 6.0 0.00 0.00 0.00 31 1031.2
20260506163013 74 100 2.0 6.0 0.00 0.00 0.00 32 1031.2
20260506162513 73 105 2.0 6.0 0.00 0.00 0.00 32 1030.8
20260506162013 72 112 2.0 6.0 0.00 0.00 0.00 33 1031.2
20260506161513 72 103 2.0 6.0 0.00 0.00 0.00 34 1030.8
20260506161013 73 90 2.0 5.0 0.00 0.00 0.00 32 1030.8
20260506160513 72 81 2.0 5.0 0.00 0.00 0.00 35 1030.8
20260506160013 72 106 1.0 5.0 0.00 0.00 0.00 36 1031.2
20260506155513 71 111 1.0 5.0 0.00 0.00 0.00 37 1031.2
20260506155033 70 97 2.0 5.0 0.00 0.00 0.00 37 1030.8
20260506154513 70 78 2.0 4.0 0.00 0.00 0.00 37 1030.8
20260506154034 69 88 2.0 7.0 0.00 0.00 0.00 37 1030.8
20260506153513 68 117 2.0 7.0 0.00 0.00 0.00 39 1031.2
20260506153033 68 111 2.0 6.0 0.00 0.00 0.00 38 1031.2
20260506152512 68 92 2.0 6.0 0.00 0.00 0.00 37 1031.2
20260506152033 68 95 2.0 5.0 0.00 0.00 0.00 37 1031.2
20260506151512 67 105 2.0 5.0 0.00 0.00 0.00 39 1031.2
20260506151013 66 111 2.0 7.0 0.00 0.00 0.00 39 1031.2
20260506150512 65 117 3.0 8.0 0.00 0.00 0.00 41 1031.2
20260506150012 65 115 3.0 8.0 0.00 0.00 0.00 42 1031.2
20260506145533 64 101 3.0 7.0 0.00 0.00 0.00 43 1031.2
20260506145013 65 89 2.0 7.0 0.00 0.00 0.00 43 1030.8
20260506144512 64 115 3.0 6.0 0.00 0.00 0.00 43 1030.8
20260506144012 64 98 3.0 6.0 0.00 0.00 0.00 43 1030.8
20260506143512 63 99 3.0 6.0 0.00 0.00 0.00 43 1030.8
20260506143012 63 110 3.0 6.0 0.00 0.00 0.00 44 1031.2